Regional Weather Roundup
Issued by NWS

Home | Current Version | Previous Version | Graphics & Text | Print | Product List | Glossary On
Versions: 1 2 3 4 5 6 7 8 9 10 11 12 13 14 15 16 17 18 19 20 21 22 23 24 25 26 27 28 29 30 31 32 33 34 35 36 37 38 39 40 41 42 43 44 45 46 47 48 49 50
000
ASUS43 KOAX 262310
RWRNE

WEATHER ROUNDUP FOR NEBRASKA
NATIONAL WEATHER SERVICE OMAHA NE
600 PM CDT SUN MAR 26 2017

NOTES: SATELLITE DATA IS BEING USED TO AUGMENT CLOUD COVER ABOVE
       12000 FEET.
       "FAIR" INDICATES FEW OR NO CLOUDS BELOW 12,000 FEET WITH NO
       SIGNIFICANT WEATHER AND/OR OBSTRUCTIONS TO VISIBILITY.

  * THESE STATIONS DO NOT REPORT WEATHER SUCH AS RAIN...SNOW OR FOG.

NEZ001>004-019>022-054>056-270000-
NEBRASKA PANHANDLE

CITY           SKY/WX    TMP DP  RH WIND       PRES   REMARKS
SCOTTSBLUFF    CLOUDY    53  37  54 N12       29.92S
ALLIANCE       CLOUDY    54  36  50 N10       29.89R
CHADRON        CLOUDY    49  39  68 N6        29.93S
KIMBALL        CLOUDY    49  40  68 N16G23    29.92F
SIDNEY         MOSUNNY   55  36  48 N8        29.90S
$$

NEZ057>060-069>072-079>082-270000-
SOUTHWEST NEBRASKA

CITY           SKY/WX    TMP DP  RH WIND       PRES   REMARKS
NORTH PLATTE   PTSUNNY   60  36  40 VRB5      29.85S
IMPERIAL       CLOUDY    56  39  53 N8        29.87R
LEXINGTON      MOSUNNY   53  42  66 S10       29.87R
MCCOOK         CLOUDY    53  41  63 S3        29.87R
OGALLALA       PTSUNNY   59  36  42 N12       29.87R
$$

NEZ005>010-023>029-035>040-094-270000-
NORTH CENTRAL NEBRASKA

CITY           SKY/WX    TMP DP  RH WIND       PRES   REMARKS
VALENTINE      CLOUDY    51  36  56 N8        29.90R
AINSWORTH      MOSUNNY   52  42  66 NE7       29.89R
BROKEN BOW     MOSUNNY   56  40  55 NE10      29.84S
O`NEILL        CLOUDY    46  41  84 NE5       29.91S
ORD            MOSUNNY   52  41  66 NE7       29.86F
THEDFORD       MOSUNNY   60  39  46 E10       29.86R
$$

NEZ041-046>049-061>064-073>077-083>087-270000-
SOUTH CENTRAL NEBRASKA

CITY           SKY/WX    TMP DP  RH WIND       PRES   REMARKS
GRAND ISLAND   CLOUDY    49  45  86 NE8       29.88S
AURORA         CLOUDY    49  45  88 NE7       29.87S
HASTINGS       CLOUDY    49  43  80 E6        29.90R
HEBRON         CLOUDY    49  43  81 NE6       29.89R
HOLDREGE       PTSUNNY   49  40  72 E5        29.89R
KEARNEY *      CLOUDY    48  39  71 CALM      29.89R
YORK           CLOUDY    48  45  87 NE9       29.87F
$$

NEZ011>018-030>034-042>045-270000-
NORTHEAST NEBRASKA

CITY           SKY/WX    TMP DP  RH WIND       PRES   REMARKS
NORFOLK        CLOUDY    47  40  76 N9        29.89F
ALBION         CLOUDY    49  42  76 NE8       29.88F
BLAIR          CLOUDY    48  43  82 N8        29.89F HAZE
FREMONT        CLOUDY    47  42  82 N6        29.90F
TEKAMAH        CLOUDY    49  41  74 N8        29.90S
WAYNE          CLOUDY    46  42  88 NE8       29.91R
$$

NEZ050>053-065>068-078-088>093-270000-
SOUTHEAST NEBRASKA

CITY           SKY/WX    TMP DP  RH WIND       PRES   REMARKS
LINCOLN        CLOUDY    49  42  77 NE8       29.89S
OMAHA EPPLEY   CLOUDY    49  41  74 N6        29.90S
BEATRICE       CLOUDY    48  43  83 NE6       29.88R
FALLS CITY     CLOUDY    48  43  82 N7        29.88F
NEBRASKA CITY  CLOUDY    47  42  82 NE7       29.87F
PLATTSMOUTH    CLOUDY    49  39  69 N7        29.88F
$$

NEZ044-045-051>053-067-270000-
OMAHA AREA

CITY           SKY/WX    TMP DP  RH WIND       PRES   REMARKS
OMAHA EPPLEY   CLOUDY    49  41  74 N6        29.90S
BLAIR          CLOUDY    48  43  82 N8        29.89F HAZE
FREMONT        CLOUDY    47  42  82 N6        29.90F
MILLARD        CLOUDY    51  44  75 N3        29.89F
OFFUTT AFB     CLOUDY    50  42  73 N7        29.88F
PLATTSMOUTH    CLOUDY    49  39  69 N7        29.88F
WAHOO          CLOUDY    47  43  84 N9        29.88F
$$



USA.gov is the U.S. government's official web portal to all federal, state and local government web resources and services.